Regional Weather Roundup
Issued by NWS State College, PA

Home | Current Version | Previous Version | Graphics & Text | Print | Product List | Glossary On
Versions: 1 2 3 4 5 6 7 8 9 10 11 12 13 14 15 16 17 18 19 20 21 22 23 24 25 26 27 28 29 30 31 32 33 34 35 36 37 38 39 40 41 42 43 44 45 46 47 48 49 50
000
ASUS41 KCTP 231403
RWRCTP

REGIONAL WEATHER ROUNDUP
NATIONAL WEATHER SERVICE STATE COLLEGE PA
1000 AM EDT THU OCT 23 2014

Note: "fair" indicates few or no clouds below 12,000 feet with no
significant weather and/or obstructions to visibility.

* = STATION THAT DOES NOT REPORT PRECIPITATION /E.G. RAIN...SNOW...ETC/
    THUNDER OR FOG.

PAZ002>004-007>009-013>016-020>023-029>032-231500-
WESTERN PENNSYLVANIA

CITY           SKY/WX    TMP DP  RH WIND       PRES   REMARKS
ERIE           SUNNY     53  42  66 N13       30.17S
MEADVILLE      SUNNY     51  42  71 N7        30.14S
FRANKLIN*      SUNNY     48  37  66 N7        30.13F
NEW CASTLE       N/A     50  44  79 NW12      30.17R
BEAVER COUNTY  MOSUNNY   48  43  81 N9        30.15R
BUTLER*        SUNNY     50  39  66 NW12      30.14S
PITTSBURGH INT MOSUNNY   49  43  80 NW13      30.14S
PITTSBURGH     MOSUNNY   50  39  66 NW14      30.11F
INDIANA*       CLOUDY    46  41  81 N8G15     30.13R
LATROBE        CLOUDY   N/A N/A N/A W8        30.12F
WASHINGTON CO* CLOUDY    46  43  87 NW8       30.17R
$$

PAZ004>006-010>012-017>019-024>028-033>037-041-042-045-046-049>053-231500-
CENTRAL PENNSYLVANIA

CITY           SKY/WX    TMP DP  RH WIND       PRES   REMARKS
BRADFORD       PTSUNNY   44  38  79 N13       30.05F
DUBOIS         CLOUDY    45  40  82 N10       30.05S
CLEARFIELD     PTSUNNY   48  40  73 N14       30.03F
JOHNSTOWN      CLOUDY    43  38  82 NW12      30.05F
ALTOONA        PTSUNNY   51  42  71 N10       30.01F
STATE COLLEGE  CLOUDY    48  41  76 N9G18     29.99S
WILLIAMSPORT   CLOUDY    53  42  66 NW13G23   29.92S
SELINSGROVE    CLOUDY    53  43  68 N17       29.92S
FT INDIANTOWN  CLOUDY    54  46  76 NW14G28   29.86S
CAPITAL CITY   CLOUDY    56  43  61 NW16G30   29.89R
HARRISBURG     CLOUDY    54  43  66 NW12G24   29.88R
YORK           CLOUDY    54  43  66 NW9       29.88S
$$

PAZ038>040-043-044-047-048-054-055-060>062-067>071-231500-
EASTERN PENNSYLVANIA

CITY           SKY/WX    TMP DP  RH WIND       PRES   REMARKS
SCRANTON       LGT RAIN  46  41  82 N8        29.88R
MOUNT POCONO   LGT RAIN  43  40  89 NW15G29   29.80R
ALLENTOWN      CLOUDY    51  41  68 NW14G23   29.81R
QUAKERTOWN*    CLOUDY    48  43  81 N15G21    29.81R
READING        CLOUDY    52  43  71 NW10      29.83S
LANCASTER      CLOUDY    53  42  66 NW13G24   29.85S
COATESVILLE    CLOUDY    50  45  81 NW14G24   29.82S
POTTSTOWN      CLOUDY    51  44  77 NW13      29.82R
BLUE BELL      CLOUDY    52  45  76 NW6G20    29.78S
DOYLESTOWN     LGT RAIN  48  46  93 NW7G17    29.77R
WILLOW GROVE   NOT AVBL
NORTH PHILA    LGT RAIN  52  45  77 NW14G28   29.78S
PHILADELPHIA   CLOUDY    52  46  80 NW18G28   29.78S
$$



USA.gov is the U.S. government's official web portal to all federal, state and local government web resources and services.